GALAXY 10R

导读

GALAXY 10R是一颗由美国发射的通信卫星,于北京时间2000年1月25日8时成功发射升空。该卫星属于地球同步轨道通信卫星,主要提供商业通信传输服务,覆盖美洲等区域,为广播电视、固定通信等业务提供空间基础设施支持,服役期间为区域通信互联互通发挥了重要作用,是美国早期商业卫星组网布局中的重要节点。

基本信息
目录编号:
26056
目录名称:
GALAXY 10R
国际标识:
2000-002A
轨道中心:
EARTH
卫星名称:
GALAXY 10R
卫星全名:
--
卫星状态:
在轨 (已飞行9726 天)
发射日期:
2000-01-25 UTC
国别 :
美国 (US)
星等 :
--
轨道信息
数据来源 国际轨道数据 AOE轨道数据
星历时间 2026-09-10T19:59:39+0800
15小时前
查看轨道信息
2026-09-10T15:00:00+0800
20小时前
查看轨道信息
半长轴 42343.347km 42343.432km
偏心率 0.0007214 0.0007075
轨道倾角 12.307° 12.307°
近地点辐角 171.123° 169.436°
升交点赤经 30.505° 30.508°
平近点角 190.401° 117.443°
近地点 35934.663km 35935.337km
远地点 35995.757km 35995.253km
周期 1445.232分钟 1445.236分钟
每日圈数 0.99638 0.996377
详细信息
使用方式:
暂无
2D轨道图
3D轨道图
轨道高度分析图
轨道倾角分析图
轨道综合分析图
查看轨道综合分析图
与全量物体交会距离演化趋势
与全量物体交会风险概率演化趋势